When you browse on this site, cookies collect data to enhance your experience and personalize the content and advertising you see.
Visit our Privacy Policy to learn more. By continuing to use the site, you agree to this use of cookies and data.
  • In Hungary
  • List of Countries
  • For 7 days
  • Water Temperature
  • Satellite Maps
  • Weather Map
  • News
  • Weather Widgets
  • user-avatar
    Login

    Hourly Weather Kedougou

    Today, 16 December, Sunday

    Time Temperature Precipitation Wind Pressure Humidity
    00:00 +27°C° 0 mm 1 mps 749 mmHg 14%
    01:00 +26°C° 0 mm 1 mps 748 mmHg 14%
    02:00 +26°C° 0 mm 1 mps 748 mmHg 15%
    03:00 +25°C° 0 mm 1 mps 748 mmHg 15%
    04:00 +25°C° 0 mm 1 mps 748 mmHg 15%
    05:00 +24°C° 0 mm 1 mps 748 mmHg 15%
    06:00 +26°C° 0 mm 1 mps 749 mmHg 13%
    07:00 +28°C° 0 mm 1 mps 749 mmHg 12%
    08:00 +29°C° 0 mm 1 mps 749 mmHg 11%
    09:00 +31°C° 0 mm 2 mps 749 mmHg 9%
    10:00 +35°C° 0 mm 2 mps 749 mmHg 7%
    11:00 +37°C° 0 mm 3 mps 749 mmHg 6%
    12:00 +38°C° 0 mm 3 mps 748 mmHg 5%
    13:00 +38°C° 0 mm 3 mps 747 mmHg 5%
    14:00 +39°C° 0 mm 3 mps 747 mmHg 5%
    15:00 +38°C° 0 mm 2 mps 747 mmHg 5%
    16:00 +37°C° 0 mm 2 mps 747 mmHg 6%
    17:00 +34°C° 0 mm 1 mps 747 mmHg 6%
    18:00 +32°C° 0 mm 1 mps 747 mmHg 7%
    19:00 +30°C° 0 mm 1 mps 748 mmHg 7%
    20:00 +29°C° 0 mm 1 mps 748 mmHg 8%
    21:00 +28°C° 0 mm 1 mps 748 mmHg 8%
    22:00 +27°C° 0 mm 1 mps 748 mmHg 8%
    23:00 +26°C° 0 mm 1 mps 748 mmHg 8%

    Tomorrow, 17 December, Monday

    Time Temperature Precipitation Wind Pressure Humidity
    00:00 +26°C° 0 mm 1 mps 748 mmHg 9%
    01:00 +25°C° 0 mm 1 mps 748 mmHg 9%
    02:00 +25°C° 0 mm 1 mps 747 mmHg 9%
    03:00 +24°C° 0 mm 1 mps 747 mmHg 10%
    04:00 +24°C° 0 mm 1 mps 747 mmHg 10%
    05:00 +23°C° 0 mm 1 mps 747 mmHg 11%
    06:00 +25°C° 0 mm 1 mps 747 mmHg 10%
    07:00 +27°C° 0 mm 1 mps 748 mmHg 10%
    08:00 +29°C° 0 mm 1 mps 748 mmHg 9%
    09:00 +32°C° 0 mm 2 mps 748 mmHg 8%
    10:00 +36°C° 0 mm 2 mps 748 mmHg 8%
    11:00 +39°C° 0 mm 2 mps 747 mmHg 7%
    12:00 +40°C° 0 mm 2 mps 746 mmHg 6%
    13:00 +41°C° 0 mm 1 mps 746 mmHg 6%
    14:00 +42°C° 0 mm 1 mps 745 mmHg 6%
    15:00 +40°C° 0 mm 1 mps 745 mmHg 7%
    16:00 +39°C° 0 mm 1 mps 745 mmHg 8%
    17:00 +36°C° 0 mm 1 mps 745 mmHg 9%
    18:00 +34°C° 0 mm 1 mps 745 mmHg 10%
    19:00 +32°C° 0 mm 1 mps 746 mmHg 11%
    20:00 +30°C° 0 mm 1 mps 747 mmHg 11%
    21:00 +29°C° 0 mm 1 mps 747 mmHg 12%
    22:00 +28°C° 0 mm 1 mps 747 mmHg 12%
    23:00 +28°C° 0 mm 1 mps 747 mmHg 12%

    Day after tomorrow, 18 December, Tuesday

    Time Temperature Precipitation Wind Pressure Humidity
    00:00 +27°C° 0 mm 1 mps 747 mmHg 13%
    01:00 +26°C° 0 mm 1 mps 747 mmHg 13%
    02:00 +25°C° 0 mm 1 mps 746 mmHg 14%
    03:00 +25°C° 0 mm 1 mps 746 mmHg 15%
    04:00 +24°C° 0 mm 1 mps 747 mmHg 16%
    05:00 +24°C° 0 mm 1 mps 747 mmHg 17%
    06:00 +24°C° 0 mm 0 mps 747 mmHg 16%
    07:00 +25°C° 0 mm 0 mps 748 mmHg 16%
    08:00 +27°C° 0 mm 0 mps 748 mmHg 15%
    09:00 +32°C° 0 mm 1 mps 748 mmHg 13%
    10:00 +35°C° 0 mm 1 mps 748 mmHg 11%
    11:00 +37°C° 0 mm 1 mps 747 mmHg 8%
    12:00 +39°C° 0 mm 1 mps 747 mmHg 8%
    13:00 +40°C° 0 mm 1 mps 746 mmHg 7%
    14:00 +41°C° 0 mm 1 mps 745 mmHg 7%
    15:00 +40°C° 0 mm 1 mps 745 mmHg 8%
    16:00 +37°C° 0 mm 1 mps 745 mmHg 9%
    17:00 +35°C° 0 mm 1 mps 745 mmHg 10%
    18:00 +34°C° 0 mm 1 mps 745 mmHg 11%
    19:00 +30°C° 0 mm 0 mps 746 mmHg 11%
    20:00 +28°C° 0 mm 0 mps 747 mmHg 12%
    21:00 +27°C° 0 mm 0 mps 747 mmHg 12%
    22:00 +27°C° 0 mm 0 mps 747 mmHg 13%
    23:00 +28°C° 0 mm 1 mps 747 mmHg 13%

    19 December, Wednesday

    Time Temperature Precipitation Wind Pressure Humidity
    00:00 +27°C° 0 mm 1 mps 747 mmHg 14%
    01:00 +26°C° 0 mm 1 mps 746 mmHg 14%
    02:00 +26°C° 0 mm 1 mps 746 mmHg 15%
    03:00 +25°C° 0 mm 1 mps 746 mmHg 17%
    04:00 +25°C° 0 mm 1 mps 746 mmHg 20%
    05:00 +24°C° 0 mm 1 mps 746 mmHg 22%
    06:00 +25°C° 0 mm 1 mps 747 mmHg 25%
    07:00 +27°C° 0 mm 1 mps 748 mmHg 27%
    08:00 +28°C° 0 mm 1 mps 748 mmHg 30%
    09:00 +31°C° 0 mm 1 mps 748 mmHg 24%
    10:00 +35°C° 0 mm 1 mps 747 mmHg 18%
    11:00 +39°C° 0 mm 1 mps 747 mmHg 12%
    12:00 +39°C° 0 mm 1 mps 746 mmHg 11%
    13:00 +40°C° 0 mm 1 mps 745 mmHg 10%
    14:00 +41°C° 0 mm 1 mps 744 mmHg 8%
    15:00 +39°C° 0 mm 1 mps 744 mmHg 9%
    16:00 +37°C° 0 mm 1 mps 744 mmHg 10%
    17:00 +36°C° 0 mm 1 mps 744 mmHg 10%
    18:00 +34°C° 0 mm 1 mps 745 mmHg 11%
    19:00 +32°C° 0 mm 1 mps 745 mmHg 12%
    20:00 +30°C° 0 mm 1 mps 746 mmHg 12%
    21:00 +29°C° 0 mm 1 mps 746 mmHg 13%
    22:00 +29°C° 0 mm 1 mps 746 mmHg 13%
    23:00 +28°C° 0 mm 1 mps 746 mmHg 13%

    20 December, Thursday

    Time Temperature Precipitation Wind Pressure Humidity
    00:00 +27°C° 0 mm 1 mps 746 mmHg 13%
    01:00 +27°C° 0 mm 1 mps 745 mmHg 13%
    02:00 +26°C° 0 mm 1 mps 745 mmHg 14%
    03:00 +26°C° 0 mm 1 mps 745 mmHg 14%
    04:00 +25°C° 0 mm 1 mps 746 mmHg 15%
    05:00 +24°C° 0 mm 1 mps 746 mmHg 15%
    06:00 +24°C° 0 mm 0 mps 746 mmHg 14%
    07:00 +26°C° 0 mm 0 mps 747 mmHg 13%
    08:00 +28°C° 0 mm 0 mps 747 mmHg 12%
    09:00 +33°C° 0 mm 1 mps 747 mmHg 11%
    10:00 +36°C° 0 mm 1 mps 747 mmHg 9%
    11:00 +39°C° 0 mm 1 mps 746 mmHg 8%
    12:00 +40°C° 0 mm 1 mps 745 mmHg 8%
    13:00 +41°C° 0 mm 1 mps 745 mmHg 7%
    14:00 +43°C° 0 mm 1 mps 744 mmHg 7%
    15:00 +41°C° 0 mm 1 mps 744 mmHg 8%
    16:00 +39°C° 0 mm 1 mps 744 mmHg 9%
    17:00 +37°C° 0 mm 1 mps 744 mmHg 10%
    18:00 +35°C° 0 mm 1 mps 744 mmHg 11%
    19:00 +33°C° 0 mm 1 mps 745 mmHg 12%
    20:00 +31°C° 0 mm 1 mps 746 mmHg 13%
    21:00 +30°C° 0 mm 1 mps 746 mmHg 13%
    22:00 +30°C° 0 mm 1 mps 746 mmHg 14%
    23:00 +29°C° 0 mm 1 mps 746 mmHg 14%

    21 December, Friday

    Time Temperature Precipitation Wind Pressure Humidity
    00:00 +28°C° 0 mm 1 mps 746 mmHg 15%
    01:00 +27°C° 0 mm 1 mps 745 mmHg 16%
    02:00 +27°C° 0 mm 1 mps 745 mmHg 16%
    03:00 +26°C° 0 mm 1 mps 745 mmHg 19%
    04:00 +25°C° 0 mm 1 mps 745 mmHg 21%
    05:00 +24°C° 0 mm 1 mps 746 mmHg 24%
    06:00 +26°C° 0 mm 1 mps 746 mmHg 24%
    07:00 +26°C° 0 mm 0 mps 747 mmHg 25%
    08:00 +27°C° 0 mm 0 mps 747 mmHg 26%
    09:00 +32°C° 0 mm 1 mps 747 mmHg 21%
    10:00 +35°C° 0 mm 1 mps 746 mmHg 16%
    11:00 +38°C° 0 mm 2 mps 746 mmHg 11%
    12:00 +40°C° 0 mm 2 mps 745 mmHg 10%
    13:00 +41°C° 0 mm 1 mps 744 mmHg 9%
    14:00 +42°C° 0 mm 1 mps 744 mmHg 8%
    15:00 +41°C° 0 mm 1 mps 744 mmHg 9%
    16:00 +39°C° 0 mm 1 mps 744 mmHg 9%
    17:00 +37°C° 0 mm 1 mps 744 mmHg 10%
    18:00 +35°C° 0 mm 1 mps 744 mmHg 11%
    19:00 +33°C° 0 mm 1 mps 745 mmHg 12%
    20:00 +31°C° 0 mm 1 mps 745 mmHg 13%
    21:00 +30°C° 0 mm 1 mps 745 mmHg 13%
    22:00 +29°C° 0 mm 1 mps 745 mmHg 14%
    23:00 +29°C° 0 mm 1 mps 745 mmHg 14%
    Show more